NS3L-13 Weather Reports


Display with metric or nautical units.
time (UTC)temp
F
wind
direction
speed
MPH
gust
MPH
rain 1hr
in
rain 24hr
in
rain mn
in
humidity
%
barometer
mb
20260504150504 64 234 6.0 18.0 0.00 0.00 0.00 39 1013.5
20260504141004 60 245 7.0 12.0 0.00 0.00 0.00 41 1013.8
20260504140504 60 233 2.0 9.0 0.00 0.00 0.00 45 1013.9
20260504130504 52 324 2.0 3.0 0.00 0.00 0.00 62 1014.5
20260504110504 41 266 1.0 2.0 0.00 0.00 0.00 79 1014.7
20260504100505 39 266 0.0 1.0 0.00 0.00 0.00 77 1014.5
20260504082004 42 265 0.0 1.0 0.00 0.00 0.00 72 1014.4
20260504081504 42 265 1.0 2.0 0.00 0.00 0.00 72 1014.4
20260504080504 42 266 1.0 2.0 0.00 0.00 0.00 71 1014.4
20260504050504 45 263 1.0 2.0 0.00 0.00 0.00 65 1014.3
20260504050004 45 263 1.0 3.0 0.00 0.00 0.00 65 1014.2
20260504045504 45 263 1.0 3.0 0.00 0.00 0.00 63 1014.2
20260504045004 46 263 1.0 3.0 0.00 0.00 0.00 62 1014.2
20260504044504 47 263 1.0 2.0 0.00 0.00 0.00 61 1014.2
20260504044005 47 263 2.0 3.0 0.00 0.00 0.00 60 1014.2
20260504043504 47 262 2.0 3.0 0.00 0.00 0.00 59 1014.2
20260504043004 48 260 1.0 3.0 0.00 0.00 0.00 58 1014.2
20260504042505 48 258 2.0 3.0 0.00 0.00 0.00 58 1014.2
20260504042004 47 259 2.0 6.0 0.00 0.00 0.00 58 1014.1
20260504041004 47 242 1.0 2.0 0.00 0.00 0.00 59 1014.0
20260504040505 47 243 1.0 1.0 0.00 0.00 0.00 58 1013.9
20260504035504 48 243 1.0 3.0 0.00 0.00 0.00 56 1013.8
20260504035004 49 242 1.0 2.0 0.00 0.00 0.00 56 1013.7
20260504034504 49 242 1.0 3.0 0.00 0.00 0.00 55 1013.7
20260504034005 49 242 1.0 3.0 0.00 0.00 0.00 55 1013.7
20260504033505 49 242 1.0 3.0 0.00 0.00 0.00 55 1013.7
20260504033006 49 242 0.0 2.0 0.00 0.00 0.00 54 1013.7
20260504032004 49 242 1.0 3.0 0.00 0.00 0.00 54 1013.6
20260504031504 50 242 0.0 3.0 0.00 0.00 0.00 53 1013.6
20260504031004 50 242 1.0 5.0 0.00 0.00 0.00 52 1013.5
20260504030504 50 250 1.0 2.0 0.00 0.00 0.00 52 1013.5
20260504030004 50 250 2.0 3.0 0.00 0.00 0.00 51 1013.4
20260504025504 50 240 1.0 3.0 0.00 0.00 0.00 50 1013.4
20260504025005 51 239 1.0 3.0 0.00 0.00 0.00 50 1013.5
20260504024004 51 239 1.0 3.0 0.00 0.00 0.00 49 1013.5
20260504023504 51 240 1.0 2.0 0.00 0.00 0.00 48 1013.6
20260504023004 52 240 1.0 3.0 0.00 0.00 0.00 47 1013.6
20260504022504 52 239 0.0 3.0 0.00 0.00 0.00 48 1013.6
20260504021504 52 239 2.0 3.0 0.00 0.00 0.00 47 1013.4
20260504021005 52 239 1.0 3.0 0.00 0.00 0.00 46 1013.4
20260504020504 52 238 1.0 5.0 0.00 0.00 0.00 46 1013.4
20260504020004 52 249 2.0 3.0 0.00 0.00 0.00 46 1013.4
20260504015504 53 250 1.0 3.0 0.00 0.00 0.00 46 1013.4
20260504015004 53 250 1.0 3.0 0.00 0.00 0.00 45 1013.4
20260504014505 53 250 1.0 3.0 0.00 0.00 0.00 45 1013.4
20260504013504 54 250 1.0 3.0 0.00 0.00 0.00 44 1013.3
20260504013004 54 251 2.0 3.0 0.00 0.00 0.00 43 1013.3
20260504012504 54 252 2.0 3.0 0.00 0.00 0.00 43 1013.3
20260504011503 54 254 3.0 6.0 0.00 0.00 0.00 43 1013.1
20260504011004 54 246 1.0 3.0 0.00 0.00 0.00 42 1013.1
20260504010504 55 243 2.0 5.0 0.00 0.00 0.00 42 1013.1
20260504010004 55 241 2.0 6.0 0.00 0.00 0.00 42 1013.1
20260504005504 55 248 2.0 5.0 0.00 0.00 0.00 42 1013.0
20260504005004 55 248 2.0 3.0 0.00 0.00 0.00 42 1012.9
20260504004504 55 253 2.0 3.0 0.00 0.00 0.00 41 1012.8
20260504004004 55 257 2.0 6.0 0.00 0.00 0.00 41 1012.7
20260504003504 56 248 1.0 5.0 0.00 0.00 0.00 41 1012.6
20260504003005 56 249 2.0 3.0 0.00 0.00 0.00 40 1012.6
20260504002504 56 282 2.0 6.0 0.00 0.00 0.00 39 1012.5
20260504002004 56 272 3.0 5.0 0.00 0.00 0.00 39 1012.4
20260504001504 57 250 1.0 3.0 0.00 0.00 0.00 39 1012.4
20260504001004 57 247 3.0 6.0 0.00 0.00 0.00 38 1012.4
20260504000505 57 265 2.0 6.0 0.00 0.00 0.00 38 1012.4
20260503235504 58 261 2.0 6.0 0.00 0.00 0.00 37 1012.3
20260503235004 58 258 2.0 7.0 0.00 0.00 0.00 37 1012.2
20260503234504 58 273 3.0 7.0 0.00 0.00 0.00 36 1012.1
20260503234005 58 279 6.0 12.0 0.00 0.00 0.00 36 1012.1
20260503233504 59 271 8.0 12.0 0.00 0.00 0.00 35 1012.0
20260503233004 59 260 4.0 9.0 0.00 0.00 0.00 35 1011.9
20260503232504 59 261 4.0 10.0 0.00 0.00 0.00 34 1011.9
20260503232004 60 261 6.0 10.0 0.00 0.00 0.00 34 1011.9
20260503231004 60 223 5.0 10.0 0.00 0.00 0.00 33 1011.9
20260503230504 60 262 5.0 16.0 0.00 0.00 0.00 34 1011.9
20260503230004 60 310 7.0 17.0 0.00 0.00 0.00 33 1011.9
20260503225507 60 256 9.0 14.0 0.00 0.00 0.00 33 1011.9
20260503225004 60 271 10.0 18.0 0.00 0.00 0.00 32 1011.8
20260503224004 60 265 8.0 14.0 0.00 0.00 0.00 32 1011.7
20260503223510 60 264 6.0 14.0 0.00 0.00 0.00 32 1011.8
20260503223015 61 286 7.0 15.0 0.00 0.00 0.00 32 1011.8
20260503222515 61 241 6.0 15.0 0.00 0.00 0.00 32 1011.8
20260503222004 60 291 7.0 12.0 0.00 0.00 0.00 33 1011.8
20260503221504 60 270 7.0 16.0 0.00 0.00 0.00 33 1011.8
20260503220504 60 255 6.0 14.0 0.00 0.00 0.00 32 1011.8
20260503215504 59 243 8.0 16.0 0.00 0.00 0.00 32 1011.9
20260503214004 60 282 8.0 17.0 0.00 0.00 0.00 32 1011.7
20260503213505 60 274 7.0 13.0 0.00 0.00 0.00 31 1011.7
20260503213005 60 281 6.0 13.0 0.00 0.00 0.00 32 1011.7
20260503212505 60 289 12.0 17.0 0.00 0.00 0.00 30 1011.6
20260503212004 60 279 8.0 18.0 0.00 0.00 0.00 31 1011.5
20260503211505 60 292 9.0 16.0 0.00 0.00 0.00 30 1011.6
20260503211004 60 283 10.0 15.0 0.00 0.00 0.00 31 1011.6
20260503210007 60 283 9.0 16.0 0.00 0.00 0.00 30 1011.7
20260503205503 60 257 10.0 18.0 0.00 0.00 0.00 31 1011.7
20260503204504 60 265 8.0 17.0 0.00 0.00 0.00 31 1011.7
20260503204004 60 316 7.0 16.0 0.00 0.00 0.00 32 1011.6
20260503203504 60 262 7.0 13.0 0.00 0.00 0.00 32 1011.7
20260503203004 60 266 7.0 12.0 0.00 0.00 0.00 31 1011.8
20260503202504 59 293 7.0 15.0 0.00 0.00 0.00 32 1011.9
20260503202005 59 293 12.0 18.0 0.00 0.00 0.00 31 1012.0
20260503201504 59 298 12.0 21.0 0.00 0.00 0.00 31 1011.9
20260503201005 59 281 12.0 20.0 0.00 0.00 0.00 32 1012.0
20260503200504 59 291 10.0 23.0 0.00 0.00 0.00 32 1012.0
20260503195504 59 262 11.0 20.0 0.00 0.00 0.00 32 1012.2
20260503195004 59 278 10.0 17.0 0.00 0.00 0.00 32 1012.2
20260503194504 58 302 10.0 20.0 0.00 0.00 0.00 32 1012.3
20260503194004 58 282 10.0 20.0 0.00 0.00 0.00 34 1012.3
20260503193503 58 300 13.0 23.0 0.00 0.00 0.00 33 1012.4
20260503192004 56 297 8.0 14.0 0.00 0.00 0.00 34 1012.6
20260503190505 58 264 17.0 26.0 0.00 0.00 0.00 32 1012.7
20260503190004 57 298 12.0 33.0 0.00 0.00 0.00 36 1012.6
20260503185504 56 297 11.0 25.0 0.00 0.00 0.00 35 1012.6
20260503185003 56 300 9.0 16.0 0.00 0.00 0.00 35 1012.8
20260503184503 57 292 12.0 23.0 0.00 0.00 0.00 33 1012.8
20260503184004 57 293 14.0 24.0 0.00 0.00 0.00 36 1012.8
20260503183504 56 297 10.0 20.0 0.00 0.00 0.00 33 1012.8
20260503183004 56 268 10.0 23.0 0.00 0.00 0.00 34 1012.9
20260503182505 56 286 10.0 21.0 0.00 0.00 0.00 34 1012.9
20260503182005 56 271 10.0 17.0 0.00 0.00 0.00 35 1012.9
20260503181505 56 279 10.0 22.0 0.00 0.00 0.00 35 1012.9
20260503181004 56 322 12.0 18.0 0.00 0.00 0.00 36 1013.0
20260503180503 56 276 12.0 24.0 0.00 0.00 0.00 35 1013.0
20260503180004 55 294 9.0 21.0 0.00 0.00 0.00 36 1013.0
20260503175504 55 293 12.0 22.0 0.00 0.00 0.00 35 1013.1
20260503175004 56 262 10.0 21.0 0.00 0.00 0.00 34 1013.1
20260503174503 56 287 12.0 18.0 0.00 0.00 0.00 33 1013.1
20260503174004 56 302 13.0 33.0 0.00 0.00 0.00 34 1013.1
20260503173504 56 296 7.0 14.0 0.00 0.00 0.00 35 1013.1
20260503173004 56 288 10.0 18.0 0.00 0.00 0.00 37 1013.2
20260503172504 55 299 12.0 20.0 0.00 0.00 0.00 34 1013.2
20260503172004 55 300 10.0 20.0 0.00 0.00 0.00 35 1013.2
20260503171504 55 312 9.0 23.0 0.00 0.00 0.00 35 1013.3
20260503171004 54 290 12.0 22.0 0.00 0.00 0.00 36 1013.3
20260503151004 49 296 7.0 14.0 0.00 0.00 0.00 49 1014.5